Regional Weather Roundup
Issued by NWS

Home | Current Version | Previous Version | Text Only | Print | Product List | Glossary On
Versions: 1 2 3 4 5 6 7 8 9 10 11 12 13 14 15 16 17 18 19 20 21 22 23 24 25 26 27 28 29 30 31 32 33 34 35 36 37 38 39 40 41 42 43 44 45 46 47 48 49 50
720
ASUS43 KDMX 201401
RWRIA

WEATHER ROUNDUP FOR IOWA
NATIONAL WEATHER SERVICE DES MOINES IA
800 AM CST FRI JAN 20 2017

NOTE: "FAIR" INDICATES FEW OR NO CLOUDS BELOW 12,000 FEET WITH NO
SIGNIFICANT WEATHER AND/OR OBSTRUCTIONS TO VISIBILITY.

* - THESE STATIONS ARE NOT NWS STATIONS...THUS NOT UNDER NWS
QUALITY CONTROL.  THEY ALSO DO NOT REPORT WEATHER SUCH
AS PRECIPITATION OR FOG.

IAZ001>003-012>014-020>022-031>034-043>046-201500-
   NORTHWEST IOWA

CITY           SKY/WX    TMP DP  RH WIND       PRES   REMARKS
CARROLL *      FOG       36  36 100 S6        29.58R VSB 1/4 WCI  31
CHEROKEE *     CLOUDY    35  35 100 CALM      29.55S FOG
DENISON *      CLOUDY    37  37 100 SE6       29.54S FOG     WCI  33
LE MARS *      CLOUDY    37  37 100 SE9       29.54R FOG     WCI  31
ORANGE CITY *  CLOUDY    37  37 100 SE3       29.52S FOG
SHELDON *      CLOUDY    36  36 100 SE7       29.51S FOG     WCI  30
SIOUX CITY     CLOUDY    38  37  97 S6        29.56R FOG     WCI  33
SPENCER        FOG       34  34 100 E7        29.54F VSB 1/2 WCI  28
STORM LAKE *   FOG       34  34 100 SE7       29.54S VSB<1/4 WCI  28
$$

IAZ055>058-069>071-079>083-090>094-201500-
   SOUTHWEST IOWA

CITY           SKY/WX    TMP DP  RH WIND       PRES   REMARKS
ATLANTIC *     FOG       36  36 100 CALM      29.59R VSB 1/2
AUDUBON *      FOG       36  34  93 CALM      29.58F VSB 1/4
CLARINDA *     CLOUDY    37  37 100 N5        29.60F FOG     WCI  34
COUNCIL BLFS * CLOUDY    37  37 100 SE5       29.58R WCI  34
CRESTON *      FOG       37  37 100 SE5       29.61R VSB 1/4 WCI  34
HARLAN  *      CLOUDY    36  36 100 SW5       29.61R WCI  32
LAMONI         FOG       37  37 100 NE5       29.59R VSB 1/2 WCI  33
RED OAK *      CLOUDY    37  37 100 CALM      29.59S FOG
SHENANDOAH *   CLOUDY    37  37 100 NE3       29.59S
$$

IAZ047>049-059>061-072>074-084-201500-
   CENTRAL IOWA

CITY           SKY/WX    TMP DP  RH WIND       PRES   REMARKS
AMES           CLOUDY    35  35 100 SE6       29.60R FOG     WCI  30
ANKENY *       FOG       36  36 100 SE5       29.61S VSB 1/2 WCI  32
BOONE *        FOG       34  34 100 E5        29.58R VSB<1/4 WCI  30
CHARITON *     FOG       36  36 100 S5        29.61R VSB<1/4 WCI  32
DES MOINES     FOG       37  37 100 E3        29.59S VSB 1/4
GRINNELL*      FOG       34  34  99 E3        29.61R VSB<1/4
KNOXVILLE *    FOG       36  36 100 CALM      29.59S VSB 1/4
MARSHALLTOWN   FOG       34  34 100 E5        29.59S VSB 1/4 WCI  30
NEWTON *       FOG       34  34 100 E5        29.59S VSB<1/4 WCI  30
PELLA *        FOG       36  35  98 CALM      29.61F VSB 1/4
PERRY *        CLOUDY    35  35  98 SE5       29.59R FOG     WCI  31
$$

IAZ004>006-015-016-023>025-035-036-201500-
   NORTH CENTRAL IOWA

CITY           SKY/WX    TMP DP  RH WIND       PRES   REMARKS
ALGONA *       FOG       34  34 100 CALM      29.56F VSB<1/4
CLARION *      FOG       34  34 100 E8        29.57F VSB 1/2 WCI  27
ESTHERVILLE    FOG       33  33 100 SE6       29.55F VSB 1/2 WCI  28
FORT DODGE *   CLOUDY    32  28  86 CALM      29.56F VSB<1/4
MASON CITY     FOG       33  32  96 SE5       29.60F VSB 1/4 WCI  29
FOREST CITY *  CLOUDY    32  32 100 E3        29.58F FOG
WEBSTER CITY * FOG       34  34 100 E6        29.55F VSB<1/4 WCI  29
IOWA FALLS *   FOG       34  34  98 E3        29.60F VSB<1/4
$$

IAZ007>011-017>019-026>030-037>042-050>054-066-201500-
   NORTHEAST IOWA

CITY           SKY/WX    TMP DP  RH WIND       PRES   REMARKS
CEDAR RAPIDS   FOG       35  35 100 E6        29.61R VSB 1/4 WCI  30
CHARLES CITY * FOG       34  34 100 E6        29.61S VSB<1/4 WCI  29
CLINTON *      FOG       36  35  96 E7        29.63R VSB 3/4 WCI  30
DECORAH *      CLOUDY    34  34 100 SE5       29.61S FOG     WCI  30
DUBUQUE        FOG       35  35 100 NE6       29.61F VSB<1/4 WCI  30
MONTICELLO *   CLOUDY    36  36 100 CALM      29.62R FOG
OELWEIN *      CLOUDY    34  34 100 E7        29.61F FOG     WCI  28
WATERLOO       FOG       34  33  96 E6        29.60F VSB 1/2 WCI  29
$$

IAZ064-065-067-068-078-201500-
   EAST CENTRAL IOWA

CITY           SKY/WX    TMP DP  RH WIND       PRES   REMARKS
DAVENPORT      FOG       36  35  96 E7        29.63R VSB 1/4 WCI  30
IOWA CITY      CLOUDY    37  36  96 NE5       29.63S FOG     WCI  33
MUSCATINE *    FOG       37  36  93 CALM      29.64R VSB 1
QUAD CITIES    FOG       37  35  92 E6        29.63R VSB 1/2 WCI  32
$$

IAZ062-063-075>077-085>089-095>099-201500-
   SOUTHEAST IOWA

CITY           SKY/WX    TMP DP  RH WIND       PRES   REMARKS
BURLINGTON     FOG       37  37 100 CALM      29.63R VSB<1/4
FAIRFIELD *    FOG       36  36 100 CALM      29.62R VSB<1/4
FORT MADISON * FOG       37  37 100 E3        29.64R VSB 1/4
KEOKUK *       FOG       39 N/A N/A S12       29.64R VSB<1/4 WCI  32
OSKALOOSA *    FOG       35  35  99 E3        29.62R VSB 1/4
OTTUMWA        FOG       37  37 100 E3        29.61R VSB 1/2
WASHINGTON *   FOG       36  36 100 E5        29.64R VSB 1/4 WCI  32
$$

ABBREVIATIONS USED IN REMARKS
   TC - TEMPERATURES IN CELSIUS
  WCI - WIND CHILL INDEX
   HX - HEAT INDEX
  VSB - VISIBILITY
$$





USA.gov is the U.S. government's official web portal to all federal, state and local government web resources and services.